Voltar ao catálogo

SL-16 DEB

AtivoLEO
NORAD 22603·DEBRIS·🇷🇺 Russia

Lançado Mar 26, 1993 de Baikonur Cosmodrome

Loading…

Próximas Passagens (próximas 24 horas)

TLE

AtualizadoSource: Space-Track

Época: Sep 14, 2026, 09:21 UTC

1 22603U 93016M   26257.38999318 -.00000033  00000-0  10109-4 0  9996
2 22603  70.9944 223.3535 0161234 240.5783 289.1342 13.78758734683871

Acompanhe SL-16 DEB em tempo real com AllMySat

Download on the App Store